Location: Caltech
(34.1382°N, 118.1253°W)
Time: 00:56:48
(UTC-07:00)

RS-15 - Visible Passes

Search period start: 25 August 2016 00:00
Search period end: 04 September 2016 00:00
Orbit: 1882 x 2162 km, 64.8° (Epoch: 23 August)

Date Brightness Start Highest point End Pass type
(mag) Time Alt. Az. Time Alt. Az. Time Alt. Az.
25 Aug 9.3 00:28:02 22° E 00:28:02 22° E 00:33:52 10° NE visible
25 Aug 7.9 02:35:47 78° W 02:36:17 79° WNW 02:48:26 10° NNE visible
25 Aug 9.3 04:43:33 13° W 04:51:05 24° NW 05:00:19 10° NNE visible
25 Aug 9.6 23:53:20 14° ENE 23:53:20 14° ENE 23:56:00 10° ENE visible
26 Aug 8.0 02:01:05 78° ENE 02:01:05 78° ENE 02:12:20 10° NNE visible
26 Aug 9.0 04:08:50 22° WNW 04:14:11 30° NW 04:24:24 10° NNE visible
27 Aug 8.3 01:26:22 57° ENE 01:26:22 57° ENE 01:36:08 10° NE visible
27 Aug 8.7 03:34:07 32° WNW 03:37:30 37° NW 03:48:29 10° NNE visible
27 Aug 9.8 05:49:47 10° NW 05:55:17 14° NNW 06:00:52 10° NNE visible
28 Aug 8.7 00:51:37 41° ENE 00:51:37 41° ENE 00:59:46 10° NE visible
28 Aug 8.4 02:59:21 45° WNW 03:00:59 47° NW 03:12:33 10° NNE visible
28 Aug 9.7 05:11:12 10° NW 05:17:48 16° NNW 05:24:33 10° NNE visible
29 Aug 9.1 00:16:50 29° ENE 00:16:50 29° ENE 00:23:11 10° NE visible
29 Aug 8.2 02:24:35 60° WNW 02:24:38 60° NW 02:36:37 10° NNE visible
29 Aug 9.6 04:32:46 10° WNW 04:40:29 19° NNW 04:48:27 10° NNE visible
29 Aug 9.4 23:42:03 20° ENE 23:42:03 20° ENE 23:46:13 10° NE visible
30 Aug 8.1 01:49:47 70° NNW 01:49:47 70° NNW 02:00:36 10° NNE visible
30 Aug 9.4 03:57:31 16° WNW 04:03:22 23° NW 04:12:28 10° NNE visible
30 Aug 9.7 23:07:13 12° ENE 23:07:13 12° ENE 23:08:32 10° ENE visible
31 Aug 8.2 01:14:57 63° NE 01:14:57 63° NE 01:24:30 10° NNE visible
31 Aug 9.1 03:22:42 25° WNW 03:26:28 29° NW 03:36:33 10° NNE visible
31 Aug 9.9 05:40:37 10° NNW 05:45:16 13° N 05:49:58 10° NNE visible
01 Sep 8.5 00:40:06 49° NE 00:40:06 49° NE 00:48:19 10° NE visible
01 Sep 8.8 02:47:51 34° WNW 02:49:44 36° NW 03:00:38 10° NNE visible
01 Sep 9.8 05:02:17 10° NW 05:07:40 13° NNW 05:13:06 10° NNE visible
02 Sep 8.9 00:05:14 36° ENE 00:05:14 36° ENE 00:11:59 10° NE visible
02 Sep 8.5 02:12:58 45° NW 02:13:11 45° NW 02:24:42 10° NNE visible
02 Sep 9.7 04:23:43 10° NW 04:30:09 15° NNW 04:36:44 10° NNE visible
02 Sep 9.2 23:30:20 26° ENE 23:30:20 26° ENE 23:35:26 10° NE visible
03 Sep 8.4 01:38:04 56° NNW 01:38:04 56° NNW 01:48:45 10° NNE visible
03 Sep 9.6 03:45:48 11° WNW 03:52:49 18° NNW 04:00:37 10° NNE visible
03 Sep 9.5 22:55:25 18° ENE 22:55:25 18° ENE 22:58:33 10° NE visible
